Location: Long Geng
(2.6167°N, 114.1333°E)
Time: 18:03:49
(UTC+00:00)

Chandra Rocket (1) - Pass Details

Date: 14 May 2021
Orbit: 355 x 10989 km, 28.4° (Epoch: 16 June)

Event Time Altitude Azimuth Distance (km) Brightness Sun altitude
Exits shadow 20:44:04 24° 194° (SSW) 1,773 4.0 -21.7°
Maximum altitude 20:45:41 27° 165° (SSE) 1,358 3.7 -21.3°
Drops below altitude 10° 20:48:43 10° 103° (ESE) 1,666 5.0 -20.6°
Sets 20:50:25 0° 88° (E) 2,310 6.3 -20.2°
